Falls City, NE

3:04 PM CDT on September 28, 2016 (GMT -0500)
Brenner

Weather History for KFNB - July, 2014

Change the Weather History Date:

Tuesday, July 1, 2014

  Actual Average Record
Temperature  
Mean Temperature 73 °F -  
Max Temperature 82 °F 88 °F 98 °F (1949)
Min Temperature 64 °F 64 °F 51 °F (1959)
Cooling Degree Days 8    
Growing Degree Days 23 (Base 50)    
Moisture  
Dew Point 60 °F    
Average Humidity 64    
Maximum Humidity 90    
Minimum Humidity 42    
Precipitation  
Precipitation 0.00 in - - ()
Sea Level Pressure  
Sea Level Pressure 29.87 in    
Wind  
Wind Speed 9 mph (WNW)    
Max Wind Speed 20 mph    
Max Gust Speed 32 mph    
Visibility 10 miles    
Events Rain    
Averages and records for this station are not official NWS values.
T = Trace of Precipitation, MM = Missing Value Source: NWS Daily Summary

Daily Weather History Graph

Daily Weather History Graph

Search for Another Location

Airport or City:

Trip Planner

Search our weather history database for the weather conditions in past years. The results will help you decide how hot, cold, wet, or windy it might be!

Date:

Astronomy

Jul. 01, 2014 Rise Set
Actual Time 5:57 AM CDT 8:55 PM CDT
Civil Twilight 5:24 AM CDT 9:28 PM CDT
Nautical Twilight 4:42 AM CDT 10:09 PM CDT
Astronomical Twilight 3:54 AM CDT 10:57 PM CDT
Moon 10:06 AM CDT (7/1) 11:19 PM CDT (7/1)
Length of Visible Light 16h 03m
Length of Day
14h 58m
Waxing Crescent, 17% of the Moon is Illuminated
Jul 1
Waxing Crescent
Jul 5
First Quarter
Jul 12
Full
Jul 18
Last Quarter
Jul 26
New

Hourly Weather History & Observations

Time (CDT) Temp. Heat Index Dew Point Humidity Pressure Visibility Wind Dir Wind Speed Gust Speed Precip Events Conditions
12:53 AM 66.0 °F - 62.1 °F 87% 29.82 in 10.0 mi SW 4.6 mph - N/A   Clear
1:53 AM 64.9 °F - 62.1 °F 90% 29.83 in 10.0 mi WNW 3.5 mph - N/A   Unknown
2:53 AM 66.0 °F - 63.0 °F 90% 29.83 in 10.0 mi WSW 10.4 mph - N/A   Clear
3:53 AM 66.0 °F - 63.0 °F 90% 29.83 in 10.0 mi NW 8.1 mph - 0.00 in Rain Light Rain
4:53 AM 64.9 °F - 62.1 °F 90% 29.87 in 10.0 mi South 6.9 mph - 0.00 in   Clear
5:53 AM 66.0 °F - 61.0 °F 84% 29.88 in 10.0 mi SW 8.1 mph - N/A   Clear
6:53 AM 66.0 °F - 61.0 °F 84% 29.88 in 10.0 mi WSW 8.1 mph - N/A   Clear
7:53 AM 68.0 °F - 60.1 °F 76% 29.88 in 10.0 mi West 8.1 mph - N/A   Clear
8:53 AM 72.0 °F - 60.1 °F 66% 29.88 in 10.0 mi WNW 10.4 mph - N/A   Clear
9:53 AM 73.0 °F - 57.9 °F 59% 29.87 in 10.0 mi WNW 11.5 mph - N/A   Clear
10:53 AM 78.1 °F - 59.0 °F 52% 29.88 in 10.0 mi WNW 17.3 mph - N/A   Clear
11:53 AM 82.0 °F 82.1 °F 59.0 °F 45% 29.89 in 10.0 mi WNW 15.0 mph 24.2 mph N/A   Clear
12:53 PM 82.9 °F 82.6 °F 57.9 °F 42% 29.88 in 10.0 mi WNW 12.7 mph 25.3 mph N/A   Clear
1:53 PM 82.9 °F 82.6 °F 57.9 °F 42% 29.88 in 10.0 mi WNW 18.4 mph - N/A   Clear
2:53 PM 81.0 °F 81.0 °F 57.0 °F 44% 29.88 in 10.0 mi WNW 15.0 mph - N/A   Mostly Cloudy
3:53 PM 81.0 °F 81.1 °F 57.9 °F 45% 29.87 in 10.0 mi West 11.5 mph - N/A   Overcast
4:53 PM 81.0 °F 81.3 °F 59.0 °F 47% 29.87 in 10.0 mi WNW 16.1 mph - N/A   Mostly Cloudy
5:53 PM 80.1 °F 81.1 °F 61.0 °F 52% 29.87 in 10.0 mi NNW 9.2 mph - N/A   Mostly Cloudy
6:53 PM 77.0 °F - 57.9 °F 52% 29.88 in 10.0 mi NNW 15.0 mph 24.2 mph N/A   Mostly Cloudy
7:53 PM 75.0 °F - 55.9 °F 51% 29.90 in 10.0 mi NW 19.6 mph 32.2 mph N/A   Clear